COSMOS 2251 DEB, 34755

Orbit data source: Space-Track

COSMOS 2251 DEB, 34755 is space debris in LEO originally from a launch on Wed, 16 Jun 1993 UTC launched from the Plesetsk Missile And Space Complex (PKMTR). The debris from Iridium 33, an American commercial communications satellite, has been tracked extensively since its accidental collision with the defunct Russian satellite Cosmos 2251 in 2009. This event, occurring at high speed in low Earth orbit (LEO), generated thousands of pieces of space debris, significantly increasing the risk of further collisions. The Iridium 33 debris cloud has impacted space traffic management and orbital debris mitigation strategies, making it a subject of ongoing study in space situational awareness.

Loading next visibility...
Identifier
34755, 1993-036ZZ
Orbit
LEO
Country
Flag of CISCIS
Related business
Manufacturer
Unknown
Mission
Spacecraft
Bus & Motor
Unknown
Mass
Unknown
Launch date (UTC)
1993-06-16 (33 years ago)
Launch vehicle
Unknown
Launch site
Plesetsk Missile And Space Complex (PKMTR)
Object type
Payload
Rocket body
Debris
Shape & HBR
Unknown shape, 0.1 m
Radar Cross Section
Small (<0.1 m²)

Expand to show TLE details & history
Last TLE update: 12 hours ago

TLE from 12 hours ago
0 COSMOS 2251 DEB
1 34755U 93036ZZ  26062.28387292  .00001474  00000-0  13887-2 0  9997
2 34755  73.9257 160.5514 0405526 165.8533 231.1676 13.50772650836115
Epoch: 2026-03-03T06:48Z
TLE epoch observation values (Epoch: 2026-03-03T06:48:46.620Z)
Latitude
32.10421°
Longitude
-92.34504°
Altitude
1,269.71 km
Speed
7.128 km/s
True Right ascension
11h 23m 39s
True Declination
31° 57' 36"
Sunlit
Object was in full shadow at epoch
Visualization orbit readout
Latitude
Unknown
Longitude
Unknown
Altitude
Unknown
Speed
Unknown
Apparent Right ascension
Unknown
Apparent Declination
Unknown
Sunlit
N/A
Visualization observer readout
Local Sidereal Time
23:01:04
Azimuth
Unknown
Elevation
Unknown
Doppler factor
Unknown
Orbital elements
Apogee altitude
1,369.065 km
Perigee altitude
765.215 km
Semi-major axis
7,445.277 km
Eccentricity
0.04055
Inclination
73.9257°
RAAN
160.5514°
Arg. of periapsis
165.8533°
True anomaly
227.6615°
Mean anomaly
231.1676°
Eccentric anomaly
229.40335°
Mean motion
3.37848 °/min
Orbital period
106.56 mins
BSTAR
0.0013887
Loading maneuver chart data...
Computing Atmospheric mass density...

Documentation

Showing up to 5 results
|